Location: Campbell Hill
(37.9301°N, 89.5490°W)
Time: 10:19:19
(UTC+00:00)

Cosmos 2233 Rocket - Pass Details

Date: 07 November 2025
Orbit: 952 x 989 km, 82.9° (Epoch: 07 December)

Event Time Altitude Azimuth Distance (km) Brightness Sun altitude
Rises 23:25:46 0° 163° (SSE) 3,655 7.0 -7.0°
Reaches altitude 10° 23:28:24 10° 156° (SSE) 2,717 6.3 -7.5°
Maximum altitude 23:34:08 40° 89° (E) 1,412 4.4 -8.6°
Drops below altitude 10° 23:39:56 10° 22° (NNE) 2,751 6.0 -9.7°
Sets 23:42:36 0° 15° (NNE) 3,706 6.7 -10.2°
